Weather in Trat

Thailand     12°09′20″N   102°32′29″E
temp.,
°C
wind,
m/s
gust,
m/s
humid.,
%
clouds,
%
prec.,
mm/h
press.,
hPa
HPBL,
m
14 june, mon
mon1401:00+24ssw1192100 6.1 100917
04:00+23wnw019599 2.3 100815
07:00+25wsw139395 5.5 1009147
10:00+29wsw3676100 1.5 10101041
13:00+30sw357341 3.4 10091220
16:00+29sw358123 1.9 1006908
19:00+25ssw11925 4.0 100725
22:00+24s1193100 3.1 101023
15 june, tue
tue1501:00+24ssw1194100 4.4 100817
04:00+24sse1194100 1.4 100719
07:00+25sw2591100 3.3 1009144
10:00+29sw3581100 2.0 1010909
13:00+29wsw3577100 5.1 10091064
16:00+29sw2579100 2.7 1007899
19:00+25sw1294100 7.3 100831
22:00+24nnw0197100 5.6 101018
16 june, wed
wed1601:00+24ese1196100 7.0 100820
04:00+24sse0194100 1.4 100819
07:00+25sw0191100 1.9 101048
10:00+28sw2481100 3.4 1011725
13:00+28sw2580100 5.0 1009682
16:00+27sw2490100 5.1 1009332
19:00+25sw1293100 9.0 101045
22:00+24wsw2494100 3.1 1011117
17 june, thu
thu1701:00+24ne1195100 5.8 101024
04:00+24nnw0196100 2.6 101020
07:00+24ese1193100 2.8 101134
10:00+27s028498 0.3 1012293
13:00+29s2372100 1.3 10101050
16:00+30ssw236893 0.3 10081009
19:00+26s118568 0.3 100920
22:00+25e1188100 0.0 101117
18 june, fri
fri1801:00+25se118785 0.1 101019
04:00+25nne0091100 0.3 101012
07:00+26ese118898 0.8 101177
10:00+30sw237095 0.7 10111059
13:00+31sw336275 0.8 10091258
16:00+31sw336299 0.1 10071188
19:00+27ssw118113 0.1 100815
22:00+26sse118434 0.0 101017